{"data":{"norad_id":67465,"epoch":"2026-05-24T23:41:48.785280Z","epoch_age_seconds":73202,"freshness":"FRESH","line1":"1 67465U 26008W   26144.98737020  .00010862  00000+0  40378-3 0  9998","line2":"2 67465  42.9989 134.0951 0001328 279.9562  80.1139 15.27570953 21243","mean_motion":15.27570953,"eccentricity":0.0001328,"inclination_deg":42.9989,"raan_deg":134.0951,"arg_perigee_deg":279.9562,"mean_anomaly_deg":80.1139,"bstar":0.00040378,"rev_number":2124,"period_min":94.267307006066,"perigee_km":482.16501703487,"apogee_km":483.98735525711,"semimajor_km":6861.213186146,"source":"CELESTRAK","updated_at":"2026-05-25T13:38:21.563700Z"}}